This is the latest recevied weather packets stored in our database for station/object EA3ANS-1. If no packets are shown the sender has not sent any weather packets the latest 10 day(s).
| Time | Temp. | Humidity | Pressure | Rain* | Wind** | Luminosity | Snow |
|---|---|---|---|---|---|---|---|
| 1787667922 | 33.89° C | - | 1009.7 hPa | 0 mm | 2.24 m/s, 280° | - | - |
| 1787667325 | 33.89° C | - | 1009.8 hPa | 0 mm | 2.24 m/s, 278° | - | - |
| 1787666727 | 33.33° C | - | 1009.9 hPa | 0 mm | 4.02 m/s, 312° | - | - |
| 1787666130 | 33.89° C | - | 1010 hPa | 0 mm | 0.45 m/s, 353° | - | - |
| 1787665532 | 32.78° C | - | 1010 hPa | 0 mm | 1.79 m/s, 340° | - | - |
| 1787664935 | 33.33° C | - | 1010.2 hPa | 0 mm | 3.13 m/s, 284° | - | - |
| 1787664332 | 33.33° C | - | 1010.3 hPa | 0 mm | 2.24 m/s, 291° | - | - |
| 1787663735 | 33.33° C | - | 1010.4 hPa | 0 mm | 1.34 m/s, 283° | - | - |
| 1787663138 | 33.33° C | - | 1010.5 hPa | 0 mm | 2.68 m/s, 312° | - | - |
| 1787662536 | 32.22° C | - | 1010.6 hPa | 0 mm | 5.81 m/s, 257° | - | - |
| 1787661939 | 32.22° C | - | 1010.7 hPa | 0 mm | 3.13 m/s, 319° | - | - |
| 1787661342 | 32.78° C | - | 1010.8 hPa | 0 mm | 3.58 m/s, 246° | - | - |
| 1787660743 | 32.22° C | - | 1010.7 hPa | 0 mm | 2.68 m/s, 0° | - | - |
| 1787660139 | 32.78° C | - | 1010.8 hPa | 0 mm | 3.13 m/s, 259° | - | - |
| 1787659541 | 32.22° C | - | 1010.9 hPa | 0 mm | 2.24 m/s, 304° | - | - |
| 1787658944 | 32.22° C | - | 1011 hPa | 0 mm | 3.58 m/s, 336° | - | - |
| 1787658346 | 31.67° C | - | 1011 hPa | 0 mm | 0.89 m/s, 18° | - | - |
| 1787657749 | 31.67° C | - | 1011.1 hPa | 0 mm | 3.13 m/s, 335° | - | - |
| 1787657152 | 31.67° C | - | 1011.1 hPa | 0 mm | 2.68 m/s, 295° | - | - |
| 1787656554 | 31.11° C | - | 1011.1 hPa | 0 mm | 1.34 m/s, 65° | - | - |
| 1787655950 | 31.67° C | - | 1011.2 hPa | 0 mm | 0.89 m/s, 20° | - | - |
| 1787655349 | 31.67° C | - | 1011.2 hPa | 0 mm | 3.58 m/s, 284° | - | - |
| 1787654752 | 31.11° C | - | 1011.3 hPa | 0 mm | 2.24 m/s, 304° | - | - |
| 1787654155 | 30.56° C | - | 1011.3 hPa | 0 mm | 3.58 m/s, 253° | - | - |
| 1787653557 | 31.11° C | - | 1011.3 hPa | 0 mm | 2.68 m/s, 221° | - | - |
* Rain latest hour (hover to see other rain measurements)
** Current wind speed in m/s (hover to see current wind gust speed)